sat.trackr.live / text

‹ back to catalog

STARLINK-33909

NORAD 63804 · 2025-092A

PAYLOAD ACTIVE UNKNOWN

§ Identity

Operator
Country
US
Launch date
2025-05-04
Launch site
AFETR
Launch vehicle
Mass (kg)
RCS (m²)

Purposes: comms

External: N2YO · Heavens-Above · Gunter

§ Orbital elements

Epoch: 2026-05-25T03:38:38.802336Z

Period
94.27 min
Inclination
43.0013°
Eccentricity
0.0001557
Mean motion
15.27591245 rev/d
Perigee alt
481.9 km
Apogee alt
484.1 km
Semi-major
6,861.2 km
B*
1.0270e-3
RAAN
101.1544°
Arg perigee
255.5020°
Mean anomaly
104.5659°
Rev number
6,030

§ Raw data

STARLINK-339091 63804U 25092A   26145.15183799  .00028117  00000+0  10270-2 0  99902 63804  43.0013 101.1544 0001557 255.5020 104.5659 15.27591245 60307

JSON: /api/v1/satellites/63804 · /tle

For live sub-satellite position, see the globe view (requires WebGL).

§ Visibility from observer

Set your observer location to see the next 7 days of passes ≥ 10°. The values pass through the URL so the page stays shareable.

No JS? Fill the form by hand. The geolocation button needs JavaScript.